sat.trackr.live / text

‹ back to catalog

FARADAY_PHOENIX

NORAD 48924 · 2021-059AX

PAYLOAD ACTIVE UNKNOWN

§ Identity

Operator
Country
UK
Launch date
2021-06-30
Launch site
AFETR
Launch vehicle
Mass (kg)
RCS (m²)

External: N2YO · Heavens-Above · Gunter

§ Orbital elements

Epoch: 2026-05-25T03:51:39.034080Z

Period
91.57 min
Inclination
97.6854°
Eccentricity
0.0003698
Mean motion
15.72595795 rev/d
Perigee alt
349.0 km
Apogee alt
354.0 km
Semi-major
6,729.6 km
B*
8.0147e-4
RAAN
340.7332°
Arg perigee
70.7208°
Mean anomaly
289.4454°
Rev number
27,403

§ Raw data

FARADAY_PHOENIX1 48924U 21059AX  26145.16086845  .00108282  00000+0  80147-3 0  99932 48924  97.6854 340.7332 0003698  70.7208 289.4454 15.72595795274037

JSON: /api/v1/satellites/48924 · /tle

For live sub-satellite position, see the globe view (requires WebGL).

§ Visibility from observer

Set your observer location to see the next 7 days of passes ≥ 10°. The values pass through the URL so the page stays shareable.

No JS? Fill the form by hand. The geolocation button needs JavaScript.

§ Radio — SatNOGS DB

ModeDescriptionDownlinkUplink
FSK AX.100 Mode 5 Mode U - FSK 9k6 401.150 MHz

1 transmitter · refreshed weekly from db.satnogs.org